Location: *
(48.7358°N, 0.3111°E)
Time: 23:52:06
(UTC+00:00)

NOSS 3-4 (A) - Pass Details

Date: 22 October 2019
Orbit: 907 x 1306 km, 63.4° (Epoch: 10 November)

Event Time Altitude Azimuth Distance (km) Brightness Sun altitude
Exits shadow 03:42:56 55° 180° (S) 1,108 3.6 -27.9°
Maximum altitude 03:44:07 69° 126° (SE) 1,007 3.6 -27.7°
Drops below altitude 10° 03:50:28 10° 45° (NE) 2,766 6.6 -26.7°
Sets 03:53:10 0° 43° (NE) 3,773 7.4 -26.2°
